Weather History for Martinsburg, WV

Change the Weather History Date:

Friday, November 1, 2013

  Actual Average Record
Temperature  
Mean Temperature 60 °F 49 °F  
Max Temperature 73 °F 60 °F 86 °F (1974)
Min Temperature 47 °F 38 °F 25 °F (1954)
Degree Days  
Heating Degree Days 5 16  
Month to date heating degree days 5 16  
Since 1 July heating degree days 402 462  
Cooling Degree Days 0 0  
Month to date cooling degree days 0 0  
Year to date cooling degree days 1057 895  
Growing Degree Days 12 (Base 50)    
Moisture  
Dew Point 50 °F    
Average Humidity 58    
Maximum Humidity 84    
Minimum Humidity 31    
Precipitation  
Precipitation 0.24 in 0.11 in 1.55 in (1997)
Month to date precipitation 0.24 0.11  
Year to date precipitation 29.34 32.97  
Sea Level Pressure  
Sea Level Pressure 29.63 in    
Wind  
Wind Speed 7 mph (SW)    
Max Wind Speed 30 mph    
Max Gust Speed 40 mph    
Visibility 9 miles    
Events Rain    
T = Trace of Precipitation, MM = Missing Value Source: NWS Daily Summary

Daily Weather History Graph

Daily Weather History Graph

Search for Another Location

Airport:

Trip Planner

Search our weather history database for the weather conditions in past years. The results will help you decide how hot, cold, wet, or windy it might be!

Date:

Astronomy

Nov. 01, 2013 Rise Set
Actual Time 7:40 AM EDT 6:10 PM EDT
Civil Twilight 7:12 AM EDT 6:38 PM EDT
Nautical Twilight 6:40 AM EDT 7:09 PM EDT
Astronomical Twilight 6:09 AM EDT 7:41 PM EDT
Moon 5:31 AM EDT 5:01 PM EDT
Length of Visible Light 11h 25m
Length of Day
10h 30m
Waning Crescent, 4% of the Moon is Illuminated
Nov 1
Waning Crescent
Nov 3
New
Nov 10
First Quarter
Nov 17
Full
Nov 25
Last Quarter

Hourly Weather History & Observations

Time (EDT) Temp. Dew Point Humidity Pressure Visibility Wind Dir Wind Speed Gust Speed Precip Events Conditions
12:53 AM 64.9 °F 55.9 °F 73% 29.67 in 10.0 mi South 10.4 mph 17.3 mph N/A   Partly Cloudy
1:53 AM 63.0 °F 57.0 °F 81% 29.64 in 9.0 mi SSE 9.2 mph 18.4 mph 0.01 in Rain Light Rain
2:53 AM 63.0 °F 57.0 °F 81% 29.60 in 10.0 mi SSE 12.7 mph - 0.02 in   Overcast
3:53 AM 64.9 °F 57.0 °F 75% 29.57 in 10.0 mi SSE 10.4 mph 19.6 mph N/A   Overcast
4:53 AM 66.9 °F 57.9 °F 73% 29.53 in 10.0 mi South 10.4 mph - N/A   Mostly Cloudy
5:53 AM 68.0 °F 59.0 °F 73% 29.52 in 10.0 mi South 10.4 mph 19.6 mph N/A   Overcast
6:36 AM 62.6 °F 57.2 °F 82% 29.61 in 2.0 mi West 15.0 mph 35.7 mph 0.14 in Rain Heavy Rain
6:45 AM 60.8 °F 55.4 °F 82% 29.62 in 4.0 mi WSW 12.7 mph 21.9 mph 0.17 in Rain Rain
6:53 AM 61.0 °F 55.9 °F 83% 29.61 in 4.0 mi WSW 13.8 mph 19.6 mph 0.19 in Rain Rain
7:53 AM 60.1 °F 55.9 °F 86% 29.61 in 10.0 mi SSW 5.8 mph - 0.02 in Rain Light Rain
8:53 AM 61.0 °F 55.0 °F 81% 29.63 in 10.0 mi SSW 6.9 mph - 0.00 in Rain Light Rain
9:53 AM 63.0 °F 53.1 °F 70% 29.64 in 10.0 mi SSW 5.8 mph - 0.00 in   Overcast
10:53 AM 64.9 °F 55.9 °F 73% 29.65 in 10.0 mi SE 4.6 mph - 0.00 in   Mostly Cloudy
11:53 AM 69.1 °F 48.0 °F 47% 29.65 in 10.0 mi WSW 16.1 mph 27.6 mph N/A   Partly Cloudy
12:53 PM 71.1 °F 45.0 °F 39% 29.63 in 10.0 mi West 18.4 mph 24.2 mph N/A   Clear
1:53 PM 73.0 °F 44.1 °F 35% 29.63 in 10.0 mi WSW 16.1 mph - N/A   Clear
2:53 PM 73.0 °F 42.1 °F 33% 29.61 in 10.0 mi West 10.4 mph - N/A   Clear
3:53 PM 73.0 °F 41.0 °F 31% 29.61 in 10.0 mi West 8.1 mph - N/A   Clear
4:53 PM 72.0 °F 41.0 °F 33% 29.62 in 10.0 mi West 9.2 mph - N/A   Clear
5:53 PM 66.9 °F 43.0 °F 42% 29.62 in 10.0 mi WNW 6.9 mph - N/A   Clear
6:53 PM 61.0 °F 43.0 °F 52% 29.64 in 10.0 mi Calm Calm - N/A   Clear
7:53 PM 57.0 °F 43.0 °F 59% 29.65 in 10.0 mi Calm Calm - N/A   Clear
8:53 PM 55.0 °F 43.0 °F 64% 29.67 in 10.0 mi Variable 3.5 mph - N/A   Clear
9:53 PM 52.0 °F 43.0 °F 71% 29.68 in 10.0 mi Calm Calm - N/A   Clear
10:53 PM 50.0 °F 43.0 °F 77% 29.69 in 10.0 mi Calm Calm - N/A   Clear
11:53 PM 48.9 °F 42.1 °F 77% 29.69 in 10.0 mi Calm Calm - N/A   Mostly Cloudy